When you browse on this site, cookies collect data to enhance your experience and personalize the content and advertising you see.
Visit our Privacy Policy to learn more. By continuing to use the site, you agree to this use of cookies and data.
  • In Portugal
  • List of Countries
  • For 7 days
  • Water Temperature
  • Weather Map
  • Weather Widgets
  • user-avatar
    Login

    Hourly Weather Kankan

    Today, 29 February, Saturday

    Time Temperature Precipitation Wind Pressure Humidity
    00:00 +25°C° 0 mm 1 mps 685 mmHg 18%
    01:00 +23°C° 0 mm 1 mps 684 mmHg 18%
    02:00 +23°C° 0 mm 1 mps 684 mmHg 18%
    03:00 +21°C° 0 mm 0 mps 684 mmHg 18%
    04:00 +20°C° 0 mm 0 mps 683 mmHg 18%
    05:00 +20°C° 0 mm 0 mps 684 mmHg 18%
    06:00 +20°C° 0 mm 0 mps 684 mmHg 18%
    07:00 +21°C° 0 mm 1 mps 684 mmHg 18%
    08:00 +25°C° 0 mm 1 mps 685 mmHg 15%
    09:00 +28°C° 0 mm 2 mps 686 mmHg 12%
    10:00 +33°C° 0 mm 3 mps 687 mmHg 9%
    11:00 +34°C° 0 mm 3 mps 687 mmHg 9%
    12:00 +36°C° 0 mm 3 mps 686 mmHg 9%
    13:00 +37°C° 0 mm 4 mps 686 mmHg 9%
    14:00 +37°C° 0 mm 3 mps 685 mmHg 9%
    15:00 +38°C° 0 mm 3 mps 684 mmHg 9%
    16:00 +38°C° 0 mm 3 mps 684 mmHg 9%
    17:00 +35°C° 0 mm 2 mps 683 mmHg 11%
    18:00 +32°C° 0 mm 2 mps 683 mmHg 13%
    19:00 +29°C° 0 mm 2 mps 683 mmHg 15%
    20:00 +28°C° 0 mm 1 mps 683 mmHg 16%
    21:00 +26°C° 0 mm 1 mps 684 mmHg 18%
    22:00 +25°C° 0 mm 1 mps 684 mmHg 19%
    23:00 +25°C° 0 mm 1 mps 684 mmHg 20%

    Tomorrow, 1 March, Sunday

    Time Temperature Precipitation Wind Pressure Humidity
    00:00 +24°C° 0 mm 1 mps 683 mmHg 21%
    01:00 +24°C° 0 mm 1 mps 683 mmHg 22%
    02:00 +22°C° 0 mm 0 mps 683 mmHg 22%
    03:00 +21°C° 0 mm 0 mps 683 mmHg 23%
    04:00 +21°C° 0 mm 0 mps 683 mmHg 23%
    05:00 +21°C° 0 mm 0 mps 683 mmHg 24%
    06:00 +21°C° 0 mm 0 mps 683 mmHg 24%
    07:00 +22°C° 0 mm 1 mps 684 mmHg 25%
    08:00 +26°C° 0 mm 1 mps 685 mmHg 20%
    09:00 +30°C° 0 mm 2 mps 686 mmHg 16%
    10:00 +34°C° 0 mm 3 mps 687 mmHg 11%
    11:00 +36°C° 0 mm 3 mps 687 mmHg 11%
    12:00 +37°C° 0 mm 3 mps 686 mmHg 10%
    13:00 +39°C° 0 mm 3 mps 686 mmHg 9%
    14:00 +39°C° 0 mm 3 mps 685 mmHg 9%
    15:00 +39°C° 0 mm 3 mps 684 mmHg 9%
    16:00 +40°C° 0 mm 3 mps 684 mmHg 9%
    17:00 +37°C° 0 mm 2 mps 683 mmHg 11%
    18:00 +34°C° 0 mm 2 mps 683 mmHg 12%
    19:00 +30°C° 0 mm 1 mps 683 mmHg 14%
    20:00 +29°C° 0 mm 1 mps 683 mmHg 17%
    21:00 +28°C° 0 mm 1 mps 684 mmHg 20%
    22:00 +26°C° 0 mm 1 mps 684 mmHg 22%
    23:00 +26°C° 0 mm 1 mps 684 mmHg 27%

    Day after tomorrow, 2 March, Monday

    Time Temperature Precipitation Wind Pressure Humidity
    00:00 +25°C° 0 mm 1 mps 684 mmHg 32%
    01:00 +25°C° 0 mm 1 mps 684 mmHg 37%
    02:00 +24°C° 0 mm 1 mps 684 mmHg 39%
    03:00 +24°C° 0 mm 1 mps 684 mmHg 40%
    04:00 +24°C° 0 mm 1 mps 683 mmHg 42%
    05:00 +23°C° 0 mm 1 mps 684 mmHg 43%
    06:00 +23°C° 0 mm 1 mps 684 mmHg 44%
    07:00 +23°C° 0 mm 1 mps 685 mmHg 45%
    08:00 +27°C° 0 mm 1 mps 686 mmHg 35%
    09:00 +31°C° 0 mm 2 mps 687 mmHg 25%
    10:00 +35°C° 0 mm 2 mps 688 mmHg 15%
    11:00 +37°C° 0 mm 2 mps 688 mmHg 13%
    12:00 +38°C° 0 mm 3 mps 687 mmHg 11%
    13:00 +39°C° 0 mm 3 mps 687 mmHg 10%
    14:00 +39°C° 0 mm 3 mps 686 mmHg 9%
    15:00 +39°C° 0 mm 3 mps 685 mmHg 9%
    16:00 +39°C° 0 mm 3 mps 684 mmHg 9%
    17:00 +37°C° 0 mm 2 mps 684 mmHg 11%
    18:00 +34°C° 0 mm 2 mps 684 mmHg 13%
    19:00 +30°C° 0 mm 2 mps 683 mmHg 15%
    20:00 +29°C° 0 mm 1 mps 683 mmHg 16%
    21:00 +27°C° 0 mm 1 mps 684 mmHg 18%
    22:00 +24°C° 0 mm 0 mps 684 mmHg 19%
    23:00 +25°C° 0 mm 1 mps 684 mmHg 21%

    3 March, Tuesday

    Time Temperature Precipitation Wind Pressure Humidity
    00:00 +25°C° 0 mm 1 mps 684 mmHg 23%
    01:00 +24°C° 0 mm 1 mps 684 mmHg 25%
    02:00 +24°C° 0 mm 1 mps 684 mmHg 28%
    03:00 +24°C° 0 mm 1 mps 684 mmHg 31%
    04:00 +24°C° 0 mm 1 mps 684 mmHg 35%
    05:00 +23°C° 0 mm 1 mps 684 mmHg 42%
    06:00 +23°C° 0 mm 1 mps 685 mmHg 49%
    07:00 +22°C° 0 mm 1 mps 685 mmHg 57%
    08:00 +26°C° 0 mm 1 mps 686 mmHg 42%
    09:00 +30°C° 0 mm 2 mps 687 mmHg 27%
    10:00 +35°C° 0 mm 3 mps 689 mmHg 13%
    11:00 +36°C° 0 mm 3 mps 688 mmHg 12%
    12:00 +38°C° 0 mm 3 mps 687 mmHg 10%
    13:00 +40°C° 0 mm 4 mps 687 mmHg 9%
    14:00 +40°C° 0 mm 4 mps 686 mmHg 9%
    15:00 +40°C° 0 mm 4 mps 686 mmHg 9%
    16:00 +40°C° 0 mm 4 mps 685 mmHg 9%
    17:00 +36°C° 0 mm 3 mps 684 mmHg 10%
    18:00 +34°C° 0 mm 2 mps 684 mmHg 12%
    19:00 +30°C° 0 mm 1 mps 684 mmHg 14%
    20:00 +29°C° 0 mm 1 mps 684 mmHg 15%
    21:00 +27°C° 0 mm 1 mps 685 mmHg 16%
    22:00 +24°C° 0 mm 0 mps 685 mmHg 17%
    23:00 +26°C° 0 mm 1 mps 685 mmHg 18%

    4 March, Wednesday

    Time Temperature Precipitation Wind Pressure Humidity
    00:00 +25°C° 0 mm 1 mps 685 mmHg 19%
    01:00 +24°C° 0 mm 1 mps 685 mmHg 19%
    02:00 +24°C° 0 mm 1 mps 684 mmHg 20%
    03:00 +24°C° 0 mm 1 mps 684 mmHg 21%
    04:00 +23°C° 0 mm 1 mps 684 mmHg 22%
    05:00 +23°C° 0 mm 1 mps 684 mmHg 24%
    06:00 +23°C° 0 mm 1 mps 685 mmHg 27%
    07:00 +23°C° 0 mm 1 mps 685 mmHg 29%
    08:00 +27°C° 0 mm 1 mps 686 mmHg 22%
    09:00 +30°C° 0 mm 2 mps 687 mmHg 16%
    10:00 +35°C° 0 mm 2 mps 688 mmHg 9%
    11:00 +37°C° 0 mm 3 mps 688 mmHg 8%
    12:00 +38°C° 0 mm 3 mps 687 mmHg 8%
    13:00 +40°C° 0 mm 4 mps 687 mmHg 7%
    14:00 +40°C° 0 mm 4 mps 686 mmHg 7%
    15:00 +40°C° 0 mm 4 mps 685 mmHg 7%
    16:00 +39°C° 0 mm 3 mps 684 mmHg 7%
    17:00 +37°C° 0 mm 3 mps 684 mmHg 9%
    18:00 +34°C° 0 mm 2 mps 684 mmHg 10%
    19:00 +30°C° 0 mm 2 mps 683 mmHg 12%
    20:00 +29°C° 0 mm 1 mps 684 mmHg 13%
    21:00 +27°C° 0 mm 1 mps 684 mmHg 14%
    22:00 +24°C° 0 mm 0 mps 684 mmHg 15%
    23:00 +24°C° 0 mm 0 mps 684 mmHg 15%

    5 March, Thursday

    Time Temperature Precipitation Wind Pressure Humidity
    00:00 +25°C° 0 mm 1 mps 684 mmHg 16%
    01:00 +25°C° 0 mm 1 mps 684 mmHg 16%
    02:00 +24°C° 0 mm 1 mps 683 mmHg 17%
    03:00 +24°C° 0 mm 1 mps 683 mmHg 17%
    04:00 +24°C° 0 mm 1 mps 683 mmHg 17%
    05:00 +23°C° 0 mm 1 mps 683 mmHg 18%
    06:00 +23°C° 0 mm 1 mps 684 mmHg 18%
    07:00 +21°C° 0 mm 0 mps 684 mmHg 18%
    08:00 +27°C° 0 mm 2 mps 685 mmHg 15%
    09:00 +30°C° 0 mm 3 mps 686 mmHg 11%
    10:00 +35°C° 0 mm 4 mps 687 mmHg 8%
    11:00 +36°C° 0 mm 4 mps 687 mmHg 7%
    12:00 +38°C° 0 mm 4 mps 686 mmHg 6%
    13:00 +40°C° 0 mm 4 mps 686 mmHg 6%
    14:00 +40°C° 0 mm 4 mps 685 mmHg 6%
    15:00 +40°C° 0 mm 3 mps 684 mmHg 6%
    16:00 +40°C° 0 mm 3 mps 683 mmHg 6%
    17:00 +37°C° 0 mm 2 mps 683 mmHg 8%
    18:00 +34°C° 0 mm 2 mps 682 mmHg 9%
    19:00 +30°C° 0 mm 1 mps 682 mmHg 11%
    20:00 +29°C° 0 mm 1 mps 682 mmHg 12%
    21:00 +27°C° 0 mm 1 mps 683 mmHg 13%
    22:00 +24°C° 0 mm 0 mps 683 mmHg 14%
    23:00 +24°C° 0 mm 0 mps 683 mmHg 14%
    Show more